DELTA 1 DEB, 42659

Orbit data source: Space-Track

DELTA 1 DEB, 42659 is space debris in SSO originally from a launch on Thu, 12 Jun 1975 UTC launched from the Air Force Western Test Range (AFWTR). Debris objects in space refer to the collection of defunct objects orbiting the Earth. Examples of debris include non-operational satellites, rocket bodies, and fragments generated from explosions, collisions, or faulty payload assembly.

Loading next visibility...
Identifier
42659, 1975-052MU
Orbit
SSO
Country
Flag of USUS
Related business
Manufacturer
Unknown
Mission
Spacecraft
Bus & Motor
Unknown
Mass
Unknown
Launch date (UTC)
1975-06-12 (51 years ago)
Launch vehicle
Unknown
Launch site
Air Force Western Test Range (AFWTR)
Object type
Payload
Rocket body
Debris
Shape & HBR
Unknown shape, 0.1 m
Radar Cross Section
Small (<0.1 m²)

Expand to show TLE details & history
Last TLE update: 1 week ago

TLE from 1 week ago
0 DELTA 1 DEB
1 42659U 75052MU  26165.61645323  .00007197  00000-0  55192-3 0  9994
2 42659  98.2232 295.2111 0006654  21.3846 351.7074 15.02131457677332
Epoch: 2026-06-14T14:47Z
TLE epoch observation values (Epoch: 2026-06-14T14:47:41.559Z)
Latitude
12.90564°
Longitude
168.48609°
Altitude
558.039 km
Speed
7.586 km/s
True Right ascension
19h 33m 17s
True Declination
12° 49' 44"
Sunlit
Object was in full shadow at epoch
Visualization orbit readout
Latitude
Unknown
Longitude
Unknown
Altitude
Unknown
Speed
Unknown
Apparent Right ascension
Unknown
Apparent Declination
Unknown
Sunlit
N/A
Visualization observer readout
Local Sidereal Time
14:38:52
Azimuth
Unknown
Elevation
Unknown
Doppler factor
Unknown
Orbital elements
Apogee altitude
561.966 km
Perigee altitude
552.736 km
Semi-major axis
6,935.488 km
Eccentricity
0.00067
Inclination
98.2232°
RAAN
295.2111°
Arg. of periapsis
21.3846°
True anomaly
351.69639°
Mean anomaly
351.7074°
Eccentric anomaly
351.7019°
Mean motion
3.75775 °/min
Orbital period
95.8 mins
BSTAR
0.00055192
Loading maneuver chart data...
Computing Atmospheric mass density...
Loading historical data...
Loading historical data...
Loading historical data...
Loading historical data...
Loading historical data...
Loading historical data...
Loading historical data...

Documentation

Showing up to 5 results
|